TimeCDT,TemperatureF,Dew PointF,Humidity,Sea Level PressureIn,VisibilityMPH,Wind Direction,Wind SpeedMPH,Gust SpeedMPH,PrecipitationIn,Events,Conditions,WindDirDegrees,DateUTC
12:15 AM,71.6,64.4,78,30.11,10.0,SSE,3.5,-,N/A,,Clear,150,2013-08-23 05:15:00
12:35 AM,73.4,64.4,73,30.11,10.0,Calm,Calm,-,N/A,,Clear,0,2013-08-23 05:35:00
12:55 AM,71.6,64.4,78,30.10,10.0,Calm,Calm,-,N/A,,Clear,0,2013-08-23 05:55:00
1:15 AM,71.6,64.4,78,30.10,10.0,Calm,Calm,-,N/A,,Clear,0,2013-08-23 06:15:00
1:35 AM,69.8,64.4,83,30.10,10.0,Calm,Calm,-,N/A,,Clear,0,2013-08-23 06:35:00
1:55 AM,71.6,64.4,78,30.09,10.0,Calm,Calm,-,N/A,,Clear,0,2013-08-23 06:55:00
2:15 AM,69.8,64.4,83,30.09,10.0,Calm,Calm,-,N/A,,Clear,0,2013-08-23 07:15:00
2:35 AM,68.0,64.4,88,30.09,10.0,Calm,Calm,-,N/A,,Clear,0,2013-08-23 07:35:00
2:55 AM,68.0,64.4,88,30.09,10.0,Calm,Calm,-,N/A,,Clear,0,2013-08-23 07:55:00
3:15 AM,68.0,64.4,88,30.09,10.0,Calm,Calm,-,N/A,,Clear,0,2013-08-23 08:15:00
3:35 AM,66.2,64.4,94,30.09,10.0,Calm,Calm,-,N/A,,Clear,0,2013-08-23 08:35:00
3:55 AM,68.0,66.2,94,30.09,10.0,Calm,Calm,-,N/A,,Clear,0,2013-08-23 08:55:00
4:15 AM,68.0,66.2,94,30.09,10.0,Calm,Calm,-,N/A,,Clear,0,2013-08-23 09:15:00
4:35 AM,66.2,64.4,94,30.10,10.0,Calm,Calm,-,N/A,,Clear,0,2013-08-23 09:35:00
4:55 AM,66.2,64.4,94,30.10,10.0,Calm,Calm,-,N/A,,Clear,0,2013-08-23 09:55:00
5:15 AM,66.2,64.4,94,30.10,10.0,Calm,Calm,-,N/A,,Clear,0,2013-08-23 10:15:00
5:35 AM,66.2,66.2,100,30.11,10.0,Calm,Calm,-,N/A,,Clear,0,2013-08-23 10:35:00
5:55 AM,66.2,66.2,100,30.11,10.0,Calm,Calm,-,N/A,,Clear,0,2013-08-23 10:55:00
6:15 AM,66.2,64.4,94,30.11,8.0,Calm,Calm,-,N/A,,Clear,0,2013-08-23 11:15:00
6:35 AM,66.2,66.2,100,30.12,7.0,Calm,Calm,-,N/A,,Clear,0,2013-08-23 11:35:00
6:45 AM,66.2,66.2,100,30.12,6.0,Calm,Calm,-,N/A,,Mostly Cloudy,0,2013-08-23 11:45:00
7:45 AM,71.6,71.6,100,30.13,5.0,Calm,Calm,-,N/A,,Partly Cloudy,0,2013-08-23 12:45:00
8:45 AM,73.4,71.6,94,30.14,7.0,Calm,Calm,-,N/A,,Clear,0,2013-08-23 13:45:00
9:45 AM,78.8,71.6,78,30.14,10.0,SE,4.6,-,N/A,,Clear,140,2013-08-23 14:45:00
10:50 AM,82.4,71.6,70,30.14,10.0,South,4.6,-,N/A,,Clear,190,2013-08-23 15:50:00
11:45 AM,84.2,68.0,58,30.14,10.0,South,4.6,-,N/A,,Scattered Clouds,190,2013-08-23 16:45:00
12:47 PM,84.2,68.0,58,30.12,10.0,SE,4.6,-,N/A,,Mostly Cloudy,130,2013-08-23 17:47:00
1:46 PM,86.0,68.0,55,30.11,10.0,SSE,5.8,-,N/A,,Scattered Clouds,150,2013-08-23 18:46:00
2:52 PM,87.8,68.0,52,30.09,10.0,SE,4.6,-,N/A,,Mostly Cloudy,130,2013-08-23 19:52:00
3:45 PM,87.8,66.2,49,30.07,10.0,ENE,5.8,-,N/A,,Scattered Clouds,70,2013-08-23 20:45:00
4:45 PM,87.8,64.4,46,30.07,10.0,NE,4.6,-,N/A,,Partly Cloudy,50,2013-08-23 21:45:00
5:56 PM,86.0,68.0,55,30.07,10.0,East,5.8,-,N/A,,Scattered Clouds,100,2013-08-23 22:56:00
6:51 PM,84.2,68.0,58,30.06,10.0,ESE,5.8,-,N/A,,Partly Cloudy,110,2013-08-23 23:51:00
7:48 PM,80.6,71.6,74,30.07,10.0,ESE,4.6,-,N/A,,Scattered Clouds,110,2013-08-24 00:48:00
8:47 PM,78.8,69.8,74,30.08,10.0,SE,4.6,-,N/A,,Partly Cloudy,130,2013-08-24 01:47:00
9:15 PM,77.0,68.0,74,30.08,10.0,SE,4.6,-,N/A,,Clear,130,2013-08-24 02:15:00
9:35 PM,77.0,68.0,74,30.09,10.0,SE,5.8,-,N/A,,Clear,140,2013-08-24 02:35:00
9:55 PM,77.0,68.0,74,30.09,10.0,SE,4.6,-,N/A,,Clear,130,2013-08-24 02:55:00
10:15 PM,75.2,68.0,78,30.10,10.0,Calm,Calm,-,N/A,,Clear,0,2013-08-24 03:15:00
10:35 PM,77.0,68.0,74,30.10,10.0,Calm,Calm,-,N/A,,Clear,0,2013-08-24 03:35:00
10:55 PM,75.2,68.0,78,30.10,10.0,Calm,Calm,-,N/A,,Clear,0,2013-08-24 03:55:00
11:15 PM,75.2,68.0,78,30.10,10.0,Calm,Calm,-,N/A,,Clear,0,2013-08-24 04:15:00
11:35 PM,77.0,68.0,74,30.11,10.0,Calm,Calm,-,N/A,,Clear,0,2013-08-24 04:35:00
11:55 PM,75.2,68.0,78,30.11,10.0,Calm,Calm,-,N/A,,Clear,0,2013-08-24 04:55:00